Fullerton, CA

1:56 PM PDT on September 22, 2017 (GMT -0700)
Fullerton Municipal

Weather History for KFUL - April, 2015

Change the Weather History Date:

Wednesday, April 29, 2015

  Actual Average Record
Temperature  
Mean Temperature 78 °F 65 °F  
Max Temperature 97 °F 74 °F 97 °F (2015)
Min Temperature 59 °F 55 °F 47 °F (1999)
Degree Days  
Heating Degree Days 0 2  
Month to date heating degree days 31 100  
Since 1 July heating degree days 427 1192  
Cooling Degree Days 13 2  
Month to date cooling degree days 75 31  
Year to date cooling degree days 276 53  
Growing Degree Days 28 (Base 50)    
Moisture  
Dew Point 44 °F    
Average Humidity 44    
Maximum Humidity 78    
Minimum Humidity 10    
Precipitation  
Precipitation 0.00 in 0.02 in 0.56 in (1951)
Month to date precipitation 0.22 0.85  
Year to date precipitation 1.73 9.29  
Snow  
Snow 0.00 in - - ()
Month to date snowfall 0.0  
Snow Depth 0.00 in    
Sea Level Pressure  
Sea Level Pressure 29.85 in    
Wind  
Wind Speed 2 mph (West)    
Max Wind Speed 13 mph    
Max Gust Speed 17 mph    
Visibility 10 miles    
Events      
T = Trace of Precipitation, MM = Missing Value Source: NWS Daily Summary

Daily Weather History Graph

Daily Weather History Graph

Search for Another Location

Airport or City:

Trip Planner

Search our weather history database for the weather conditions in past years. The results will help you decide how hot, cold, wet, or windy it might be!

Date:

Astronomy

Apr. 29, 2015 Rise Set
Actual Time 6:05 AM PDT 7:33 PM PDT
Civil Twilight 5:38 AM PDT 8:00 PM PDT
Nautical Twilight 5:07 AM PDT 8:32 PM PDT
Astronomical Twilight 4:33 AM PDT 9:05 PM PDT
Moon 3:48 PM PDT (4/29) 3:39 AM PDT (4/29)
Length of Visible Light 14h 21m
Length of Day
13h 28m
Waxing Gibbous, 83% of the Moon is Illuminated
Apr 29
Waxing Gibbous
May 3
Full
May 11
Last Quarter
May 17
New
May 25
First Quarter

Hourly Weather History & Observations

Time (PDT) Temp. Dew Point Humidity Pressure Visibility Wind Dir Wind Speed Gust Speed Precip Events Conditions
12:53 AM 66.0 °F 51.1 °F 59% 29.93 in 10.0 mi SE 3.5 mph - N/A   Clear
1:53 AM 63.0 °F 54.0 °F 72% 29.92 in 10.0 mi Calm Calm - N/A   Clear
2:53 AM 62.1 °F 55.0 °F 78% 29.91 in 10.0 mi Calm Calm - N/A   Clear
3:53 AM 62.1 °F 54.0 °F 75% 29.90 in 10.0 mi Calm Calm - N/A   Clear
4:53 AM 60.1 °F 52.0 °F 75% 29.90 in 10.0 mi Calm Calm - N/A   Clear
5:53 AM 60.1 °F 52.0 °F 75% 29.90 in 10.0 mi Calm Calm - N/A   Clear
6:53 AM 61.0 °F 50.0 °F 67% 29.91 in 10.0 mi East 4.6 mph - N/A   Clear
7:53 AM 66.0 °F 55.9 °F 70% 29.91 in 9.0 mi Calm Calm - N/A   Clear
8:53 AM 71.1 °F 53.1 °F 53% 29.91 in 10.0 mi Calm Calm - N/A   Clear
9:53 AM 78.1 °F 44.1 °F 30% 29.91 in 10.0 mi Calm Calm - N/A   Clear
10:53 AM 82.9 °F 44.1 °F 25% 29.90 in 10.0 mi Calm Calm - N/A   Clear
11:53 AM 88.0 °F 44.1 °F 22% 29.88 in 10.0 mi Calm Calm - N/A   Clear
12:53 PM 93.0 °F 37.9 °F 15% 29.85 in 10.0 mi Variable 3.5 mph - N/A   Clear
1:53 PM 96.1 °F 34.0 °F 11% 29.83 in 10.0 mi Variable 4.6 mph - N/A   Clear
2:53 PM 95.0 °F 35.1 °F 12% 29.81 in 10.0 mi WNW 8.1 mph - N/A   Clear
3:53 PM 96.1 °F 30.0 °F 10% 29.79 in 10.0 mi WNW 9.2 mph - N/A   Clear
4:53 PM 93.9 °F 30.0 °F 10% 29.78 in 10.0 mi West 5.8 mph - N/A   Clear
5:53 PM 87.1 °F 30.9 °F 13% 29.78 in 10.0 mi West 9.2 mph - N/A   Clear
6:53 PM 82.0 °F 34.0 °F 18% 29.78 in 10.0 mi West 5.8 mph - N/A   Clear
7:53 PM 77.0 °F 39.9 °F 26% 29.78 in 10.0 mi West 5.8 mph - N/A   Clear
8:53 PM 73.9 °F 44.1 °F 34% 29.80 in 10.0 mi Calm Calm - N/A   Clear
9:53 PM 72.0 °F 45.0 °F 38% 29.81 in 10.0 mi Calm Calm - N/A   Clear
10:53 PM 71.1 °F 46.0 °F 41% 29.81 in 10.0 mi Calm Calm - N/A   Clear
11:53 PM 68.0 °F 48.9 °F 50% 29.81 in 10.0 mi Calm Calm - N/A   Clear